When you browse on this site, cookies collect data to enhance your experience and personalize the content and advertising you see.
Visit our Privacy Policy to learn more. By continuing to use the site, you agree to this use of cookies and data.
  • In France
  • List of Countries
  • For 7 days
  • Water Temperature
  • Weather Map
  • Weather Widgets
  • user-avatar
    Login

    Hourly Weather Mons

    Today, 23 September, Monday

    Time Temperature Precipitation Wind Pressure Humidity
    00:00 +15°C° 0 mm 4 mps 755 mmHg 93%
    01:00 +14°C° 0 mm 4 mps 755 mmHg 93%
    02:00 +14°C° 0 mm 4 mps 755 mmHg 92%
    03:00 +14°C° 0 mm 4 mps 755 mmHg 92%
    04:00 +13°C° 0 mm 4 mps 756 mmHg 93%
    05:00 +13°C° 0 mm 4 mps 756 mmHg 94%
    06:00 +12°C° 0 mm 4 mps 757 mmHg 94%
    07:00 +13°C° 0 mm 4 mps 757 mmHg 91%
    08:00 +14°C° 0 mm 5 mps 757 mmHg 88%
    09:00 +15°C° 0 mm 5 mps 758 mmHg 85%
    10:00 +16°C° 0 mm 5 mps 758 mmHg 78%
    11:00 +18°C° 0 mm 4 mps 758 mmHg 71%
    12:00 +19°C° 0 mm 4 mps 758 mmHg 65%
    13:00 +20°C° 0 mm 4 mps 758 mmHg 60%
    14:00 +21°C° 0 mm 4 mps 758 mmHg 56%
    15:00 +21°C° 0 mm 4 mps 758 mmHg 52%
    16:00 +20°C° 0 mm 3 mps 758 mmHg 56%
    17:00 +18°C° 0 mm 3 mps 758 mmHg 61%
    18:00 +17°C° 0 mm 2 mps 758 mmHg 66%
    19:00 +16°C° 0 mm 3 mps 758 mmHg 69%
    20:00 +15°C° 0 mm 4 mps 758 mmHg 71%
    21:00 +14°C° 0 mm 5 mps 758 mmHg 73%
    22:00 +14°C° 0 mm 5 mps 758 mmHg 73%
    23:00 +14°C° 0 mm 5 mps 758 mmHg 72%

    Tomorrow, 24 September, Tuesday

    Time Temperature Precipitation Wind Pressure Humidity
    00:00 +14°C° 0 mm 5 mps 758 mmHg 71%
    01:00 +14°C° 0 mm 5 mps 757 mmHg 70%
    02:00 +15°C° 0 mm 5 mps 756 mmHg 69%
    03:00 +15°C° 0 mm 5 mps 756 mmHg 69%
    04:00 +15°C° 0 mm 5 mps 756 mmHg 70%
    05:00 +15°C° 0 mm 5 mps 755 mmHg 71%
    06:00 +15°C° 0 mm 6 mps 755 mmHg 72%
    07:00 +16°C° 0 mm 6 mps 754 mmHg 71%
    08:00 +16°C° 0 mm 6 mps 754 mmHg 69%
    09:00 +17°C° 0 mm 6 mps 754 mmHg 67%
    10:00 +17°C° 0.4 mm 7 mps 753 mmHg 72%
    11:00 +16°C° 0.4 mm 7 mps 753 mmHg 77%
    12:00 +16°C° 0.4 mm 7 mps 752 mmHg 82%
    13:00 +16°C° 0.3 mm 7 mps 752 mmHg 83%
    14:00 +16°C° 0.3 mm 8 mps 751 mmHg 84%
    15:00 +17°C° 0.3 mm 8 mps 751 mmHg 85%
    16:00 +16°C° 1.1 mm 6 mps 751 mmHg 86%
    17:00 +16°C° 1.1 mm 5 mps 751 mmHg 87%
    18:00 +15°C° 1.1 mm 4 mps 750 mmHg 89%
    19:00 +16°C° 0 mm 3 mps 751 mmHg 90%
    20:00 +14°C° 0 mm 3 mps 751 mmHg 90%
    21:00 +13°C° 0 mm 3 mps 751 mmHg 91%
    22:00 +13°C° 0 mm 3 mps 751 mmHg 91%
    23:00 +13°C° 0 mm 4 mps 751 mmHg 90%

    Day after tomorrow, 25 September, Wednesday

    Time Temperature Precipitation Wind Pressure Humidity
    00:00 +13°C° 0 mm 4 mps 751 mmHg 89%
    01:00 +13°C° 0.1 mm 4 mps 751 mmHg 89%
    02:00 +13°C° 0.1 mm 5 mps 751 mmHg 90%
    03:00 +13°C° 0.1 mm 5 mps 751 mmHg 90%
    04:00 +13°C° 0 mm 5 mps 751 mmHg 90%
    05:00 +13°C° 0 mm 6 mps 751 mmHg 90%
    06:00 +11°C° 0 mm 6 mps 751 mmHg 90%
    07:00 +12°C° 1.1 mm 7 mps 751 mmHg 91%
    08:00 +12°C° 1.1 mm 7 mps 751 mmHg 91%
    09:00 +12°C° 1.1 mm 7 mps 751 mmHg 92%
    10:00 +13°C° 0.6 mm 8 mps 751 mmHg 90%
    11:00 +15°C° 0.6 mm 8 mps 751 mmHg 87%
    12:00 +15°C° 0.6 mm 8 mps 751 mmHg 84%
    13:00 +15°C° 0.8 mm 8 mps 751 mmHg 85%
    14:00 +15°C° 0.8 mm 8 mps 751 mmHg 87%
    15:00 +15°C° 0.8 mm 8 mps 751 mmHg 88%
    16:00 +15°C° 0.2 mm 7 mps 751 mmHg 88%
    17:00 +15°C° 0.2 mm 6 mps 751 mmHg 88%
    18:00 +15°C° 0.2 mm 5 mps 752 mmHg 88%
    19:00 +14°C° 0 mm 5 mps 752 mmHg 90%
    20:00 +14°C° 0 mm 5 mps 752 mmHg 92%
    21:00 +13°C° 0 mm 5 mps 753 mmHg 93%
    22:00 +14°C° 0 mm 5 mps 753 mmHg 94%
    23:00 +14°C° 0 mm 5 mps 753 mmHg 94%

    26 September, Thursday

    Time Temperature Precipitation Wind Pressure Humidity
    00:00 +14°C° 0 mm 5 mps 753 mmHg 94%
    01:00 +15°C° 0.1 mm 6 mps 753 mmHg 94%
    02:00 +15°C° 0.1 mm 6 mps 753 mmHg 94%
    03:00 +15°C° 0.1 mm 6 mps 753 mmHg 94%
    04:00 +15°C° 0.7 mm 6 mps 753 mmHg 93%
    05:00 +15°C° 0.7 mm 6 mps 753 mmHg 93%
    06:00 +16°C° 0.7 mm 6 mps 753 mmHg 93%
    07:00 +16°C° 0 mm 6 mps 754 mmHg 91%
    08:00 +16°C° 0 mm 6 mps 754 mmHg 90%
    09:00 +17°C° 0 mm 7 mps 755 mmHg 88%
    10:00 +17°C° 0.1 mm 7 mps 754 mmHg 82%
    11:00 +18°C° 0.1 mm 7 mps 754 mmHg 76%
    12:00 +20°C° 0.1 mm 8 mps 754 mmHg 70%
    13:00 +20°C° 0 mm 7 mps 754 mmHg 70%
    14:00 +20°C° 0 mm 7 mps 754 mmHg 70%
    15:00 +19°C° 0 mm 6 mps 754 mmHg 69%
    16:00 +19°C° 0.1 mm 6 mps 754 mmHg 71%
    17:00 +19°C° 0.1 mm 6 mps 754 mmHg 73%
    18:00 +17°C° 0.1 mm 6 mps 754 mmHg 75%
    19:00 +17°C° 0.1 mm 6 mps 754 mmHg 75%
    20:00 +17°C° 0.1 mm 6 mps 754 mmHg 75%
    21:00 +17°C° 0.1 mm 6 mps 755 mmHg 76%
    22:00 +16°C° 0.1 mm 6 mps 754 mmHg 79%
    23:00 +16°C° 0.1 mm 5 mps 754 mmHg 83%

    27 September, Friday

    Time Temperature Precipitation Wind Pressure Humidity
    00:00 +15°C° 0.1 mm 5 mps 754 mmHg 87%
    01:00 +15°C° 0.5 mm 5 mps 754 mmHg 88%
    02:00 +15°C° 0.5 mm 5 mps 754 mmHg 89%
    03:00 +15°C° 0.5 mm 6 mps 754 mmHg 90%
    04:00 +14°C° 0.2 mm 6 mps 754 mmHg 89%
    05:00 +14°C° 0.2 mm 5 mps 754 mmHg 88%
    06:00 +13°C° 0.2 mm 5 mps 753 mmHg 87%
    07:00 +14°C° 0.1 mm 6 mps 754 mmHg 82%
    08:00 +15°C° 0.1 mm 7 mps 754 mmHg 77%
    09:00 +16°C° 0.1 mm 7 mps 754 mmHg 73%
    10:00 +17°C° 0.1 mm 7 mps 754 mmHg 67%
    11:00 +17°C° 0.1 mm 8 mps 754 mmHg 62%
    12:00 +18°C° 0.1 mm 8 mps 754 mmHg 57%
    13:00 +18°C° 0.4 mm 8 mps 753 mmHg 59%
    14:00 +18°C° 0.4 mm 7 mps 753 mmHg 61%
    15:00 +17°C° 0.4 mm 7 mps 753 mmHg 63%
    16:00 +16°C° 0.1 mm 6 mps 753 mmHg 68%
    17:00 +15°C° 0.1 mm 5 mps 753 mmHg 72%
    18:00 +14°C° 0.1 mm 4 mps 753 mmHg 76%
    19:00 +13°C° 0 mm 5 mps 754 mmHg 78%
    20:00 +13°C° 0 mm 5 mps 754 mmHg 79%
    21:00 +13°C° 0 mm 5 mps 754 mmHg 80%
    22:00 +13°C° 0 mm 5 mps 754 mmHg 81%
    23:00 +13°C° 0 mm 6 mps 754 mmHg 82%

    28 September, Saturday

    Time Temperature Precipitation Wind Pressure Humidity
    00:00 +13°C° 0 mm 6 mps 753 mmHg 83%
    01:00 +11°C° 0 mm 6 mps 753 mmHg 83%
    02:00 +11°C° 0 mm 7 mps 753 mmHg 84%
    03:00 +10°C° 0 mm 7 mps 753 mmHg 84%
    04:00 +11°C° 0 mm 7 mps 753 mmHg 82%
    05:00 +11°C° 0 mm 8 mps 753 mmHg 81%
    06:00 +12°C° 0 mm 8 mps 753 mmHg 79%
    07:00 +12°C° 0 mm 8 mps 753 mmHg 78%
    08:00 +12°C° 0 mm 8 mps 753 mmHg 77%
    09:00 +13°C° 0 mm 8 mps 753 mmHg 76%
    10:00 +13°C° 0.2 mm 9 mps 753 mmHg 74%
    11:00 +15°C° 0.2 mm 9 mps 753 mmHg 73%
    12:00 +15°C° 0.2 mm 9 mps 753 mmHg 72%
    13:00 +15°C° 0.3 mm 8 mps 753 mmHg 75%
    14:00 +15°C° 0.3 mm 7 mps 753 mmHg 78%
    15:00 +14°C° 0.3 mm 7 mps 753 mmHg 81%
    16:00 +14°C° 0.2 mm 6 mps 753 mmHg 82%
    17:00 +14°C° 0.2 mm 6 mps 753 mmHg 83%
    18:00 +14°C° 0.2 mm 6 mps 753 mmHg 84%
    19:00 +14°C° 0.3 mm 6 mps 753 mmHg 85%
    20:00 +14°C° 0.3 mm 6 mps 753 mmHg 86%
    21:00 +13°C° 0.3 mm 6 mps 754 mmHg 88%
    22:00 +13°C° 0.1 mm 6 mps 753 mmHg 88%
    23:00 +13°C° 0.1 mm 6 mps 753 mmHg 88%
    Show more